User: anonymous   Login
Location: Albany
(35.0000°S, 118.0000°E)
Time: 19:32:11
(UTC-05:00)
Language:

Atlas Centaur 2 - Orbit

View from above orbital plane
View from above orbital plane
View from above satellite
View from above satellite

Ground track
Ground track

The orbit data is extracted from the following two-line orbital elements,

1 00694U 63047A   15057.59496809  .00002859  00000-0  36614-3 0  9994
2 00694 030.3607 111.2600 0593907 296.0402 230.8091 14.00646129564569
Epoch (UTC): 26 February 2015 14:16:45
Eccentricity: 0.0593907
inclination: 30.3607°
perigee height: 460 km
apogee height: 1323 km
right ascension of ascending node: 111.2600°
argument of perigee: 296.0402°
revolutions per day: 14.00646129
mean anomaly at epoch: 230.8091°
orbit number at epoch: 56456

The dashed part of the orbit path shows where the satellite is in the earth's shadow,  

DLR